EW1109 Weather Reports


Display with metric or nautical units.
time (UTC)temp
F
wind
direction
speed
MPH
gust
MPH
rain 1hr
in
rain 24hr
in
rain mn
in
humidity
%
barometer
mb
20260502233018 46 203 0.0 8.0 0.00 0.00 0.00 46 1014.7
20260502231518 46 285 0.0 8.0 0.00 0.00 0.00 46 1014.9
20260502230022 47 225 0.0 6.0 0.00 0.00 0.00 45 1015.0
20260502224515 46 217 1.0 8.0 0.00 0.00 0.00 45 1014.9
20260502223017 47 156 2.0 9.0 0.00 0.00 0.00 45 1015.1
20260502221513 47 178 3.0 11.0 0.00 0.00 0.00 44 1015.2
20260502220012 47 196 4.0 11.0 0.00 0.00 0.00 41 1015.3
20260502214610 46 146 2.0 7.0 0.00 0.00 0.00 44 1015.4
20260502213052 46 254 4.0 10.0 0.00 0.00 0.00 45 1015.5
20260502211551 47 151 2.0 7.0 0.00 0.00 0.00 46 1015.7
20260502210032 46 223 3.0 7.0 0.00 0.00 0.00 46 1015.8
20260502204530 46 227 5.0 10.0 0.00 0.00 0.00 45 1016.0
20260502203014 45 246 1.0 10.0 0.00 0.00 0.00 48 1016.2
20260502201512 44 132 2.0 9.0 0.00 0.00 0.00 48 1016.4
20260502200013 44 235 4.0 11.0 0.00 0.00 0.00 45 1016.6
20260502194510 44 225 3.0 12.0 0.00 0.00 0.00 47 1016.8
20260502193008 44 208 1.0 13.0 0.00 0.00 0.00 49 1017.0
20260502191504 44 218 2.0 11.0 0.00 0.00 0.00 47 1017.1
20260502190002 43 163 2.0 13.0 0.00 0.00 0.00 46 1017.2
20260502184604 43 215 2.0 13.0 0.00 0.00 0.00 47 1017.3
20260502183101 42 206 2.0 14.0 0.00 0.00 0.00 47 1017.4
20260502181544 43 180 3.0 10.0 0.00 0.00 0.00 46 1017.6
20260502163016 40 236 3.0 8.0 0.00 0.00 0.00 36 1018.4
20260502161511 40 263 1.0 8.0 0.00 0.00 0.00 32 1018.5
20260502151506 39 255 2.0 6.0 0.00 0.00 0.00 37 1018.5
20260502123025 36 281 4.0 7.0 0.00 0.00 0.00 24 1018.9
20260502121516 36 281 4.0 8.0 0.00 0.00 0.00 25 1018.9
20260502114553 35 287 4.0 6.0 0.00 0.00 0.00 34 1018.9
20260502113035 35 286 4.0 6.0 0.00 0.00 0.00 32 1018.9
20260502111531 35 263 3.0 6.0 0.00 0.00 0.00 32 1018.9
20260502110027 35 281 3.0 6.0 0.00 0.00 0.00 30 1018.9
20260502104521 35 281 3.0 7.0 0.00 0.00 0.00 22 1018.8
20260502103017 35 286 3.0 8.0 0.00 0.00 0.00 12 1018.8
20260502101517 36 292 5.0 7.0 0.00 0.00 0.00 6 1018.8
20260502070054 35 311 0.0 0.0 0.00 0.00 0.00 44 1018.5
20260502064543 35 346 0.0 0.0 0.00 0.00 0.00 42 1018.6
20260502063039 35 345 0.0 0.0 0.00 0.00 0.00 41 1018.7
20260502061534 35 345 0.0 0.0 0.00 0.00 0.00 39 1018.7
20260502060029 35 346 0.0 2.0 0.00 0.00 0.00 36 1018.7
20260502054525 35 347 0.0 0.0 0.00 0.00 0.00 39 1018.6
20260502053003 35 347 0.0 0.0 0.00 0.00 0.00 39 1018.6
20260502051617 36 347 0.0 4.0 0.00 0.00 0.00 37 1018.6
20260502051503 35 347 0.0 4.0 0.00 0.00 0.00 37 1018.7
20260502050042 36 344 0.0 7.0 0.00 0.00 0.00 37 1018.6
20260502044539 36 355 1.0 5.0 0.00 0.00 0.00 39 1018.5
20260502043033 36 348 1.0 5.0 0.00 0.00 0.00 41 1018.6
20260502041540 37 344 2.0 7.0 0.00 0.00 0.00 43 1018.6
20260502040024 37 355 3.0 10.0 0.00 0.00 0.00 42 1018.6
20260502034520 37 346 0.0 4.0 0.00 0.00 0.00 40 1018.7
20260502033017 37 350 0.0 4.0 0.00 0.00 0.00 37 1018.7
20260502031512 37 355 1.0 7.0 0.00 0.00 0.00 31 1018.6
20260502030107 38 348 0.0 3.0 0.00 0.00 0.00 25 1018.7
20260502024551 38 355 0.0 6.0 0.00 0.00 0.00 29 1018.6
20260502023051 37 355 0.0 7.0 0.00 0.00 0.00 27 1018.6
20260502021542 38 25 0.0 5.0 0.00 0.00 0.00 26 1018.8
20260502020038 38 355 0.0 4.0 0.00 0.00 0.00 21 1018.8
20260502014533 39 349 1.0 6.0 0.00 0.00 0.00 17 1018.6
20260502013028 39 298 0.0 0.0 0.00 0.00 0.00 9 1018.7
20260502011524 39 289 4.0 6.0 0.00 0.00 0.00 100 1018.4
20260502010023 39 294 3.0 6.0 0.00 0.00 0.00 100 1018.4
20260502004502 39 282 4.0 7.0 0.00 0.00 0.00 100 1018.4
20260502003058 40 279 6.0 10.0 0.00 0.00 0.00 100 1018.3
20260502001601 40 273 6.0 8.0 0.00 0.00 0.00 100 1018.2
20260502000050 40 257 4.0 8.0 0.00 0.00 0.00 100 1018.1
20260501234546 39 257 5.0 10.0 0.00 0.00 0.00 100 1018.0